sat.trackr.live / text

‹ back to catalog

STARLINK-32400

NORAD 61669 · 2024-193J

PAYLOAD ACTIVE UNKNOWN

§ Identity

Operator
Country
US
Launch date
2024-10-26
Launch site
AFETR
Launch vehicle
Mass (kg)
RCS (m²)

Purposes: comms

External: N2YO · Heavens-Above · Gunter

§ Orbital elements

Epoch: 2026-05-25T03:29:25.380960Z

Period
94.11 min
Inclination
53.1600°
Eccentricity
0.0001207
Mean motion
15.30196760 rev/d
Perigee alt
474.4 km
Apogee alt
476.1 km
Semi-major
6,853.4 km
B*
1.2839e-5
RAAN
93.6581°
Arg perigee
89.7987°
Mean anomaly
270.3152°
Rev number
8,826

§ Raw data

STARLINK-324001 61669U 24193J   26145.14543265  .00000021  00000+0  12839-4 0  99942 61669  53.1600  93.6581 0001207  89.7987 270.3152 15.30196760 88267

JSON: /api/v1/satellites/61669 · /tle

For live sub-satellite position, see the globe view (requires WebGL).

§ Visibility from observer

Set your observer location to see the next 7 days of passes ≥ 10°. The values pass through the URL so the page stays shareable.

No JS? Fill the form by hand. The geolocation button needs JavaScript.